Wind_Speed
3 3 5 5 5 5 6 6 6 6 6 6 5 5 6 6 5 3 4 2 4 1 2 4 5 5 4 4 1 6 3 9 10 10 8 6 4 5 6 3 4 3 8 14 18
4 4 5 6 6 6 7 7 7 8 8 7 7 6 6 7 6 7 7 4 3 1 2 6 7 6 5 4 2 7 9 7 9 11 9 5 3 4 5 9 2 10 9 15 19
5 5 6 6 6 7 7 8 8 8 8 8 8 7 6 5 7 5 5 4 3 2 6 7 7 7 1 2 5 6 6 4 9 10 8 7 3 2 6 9 7 13 13 15 18
6 6 6 7 7 7 7 8 8 8 8 8 8 7 6 4 4 1 6 5 3 2 7 7 9 11 3 4 5 4 6 6 5 4 1 2 3 4 5 6 4 0 11 16 17
7 7 7 7 7 7 7 7 7 7 7 7 7 6 5 9 9 1 6 6 5 3 6 6 10 5 4 5 1 7 6 3 3 2 2 2 2 3 3 2 3 6 10 15 17
7 7 7 7 7 7 7 7 6 6 6 5 5 4 4 15 1 1 3 6 6 6 6 7 7 5 9 3 7 4 5 3 4 4 1 3 1 3 6 6 7 8 12 14 15
8 8 8 7 7 7 7 6 6 5 5 4 4 4 7 7 4 4 5 7 8 8 8 5 7 10 6 7 4 5 4 5 7 7 4 11 9 6 4 7 9 10 12 13 14
9 8 7 7 6 6 6 5 5 4 4 3 3 2 7 9 6 7 8 8 8 8 7 5 7 11 10 8 13 8 8 5 9 6 4 10 7 8 6 10 11 12 14 14 15
9 8 7 6 5 5 4 4 4 4 3 2 1 3 6 4 8 11 11 8 8 9 9 7 9 15 10 12 14 8 7 5 1 4 6 4 8 7 10 10 11 12 15 16 17
10 9 7 6 5 4 3 3 3 3 3 3 5 6 7 8 11 12 12 8 8 8 10 11 14 14 13 11 7 7 5 1 6 3 8 11 8 8 14 10 12 14 15 17 19
11 9 7 6 5 5 6 3 2 4 12 6 8 3 7 7 9 12 12 10 9 10 12 14 12 12 13 3 12 7 10 10 7 6 9 11 14 11 11 14 11 14 17 20 21
12 9 7 6 7 7 9 7 5 3 6 12 6 5 6 8 9 11 12 11 11 12 14 11 11 14 8 6 7 11 12 12 3 4 10 12 13 14 5 8 11 16 17 19 21
13 8 5 6 7 9 10 6 4 4 9 8 10 10 11 9 9 15 13 13 8 11 10 13 5 6 7 9 13 13 14 11 9 12 20 8 8 3 6 2 6 10 15 19 22
10 5 5 7 2 5 7 7 6 3 6 10 11 10 9 10 8 5 13 9 5 10 10 10 10 5 8 10 8 14 6 3 8 12 11 11 7 10 5 7 10 13 15 16 20
6 3 8 14 8 4 5 3 5 3 6 12 10 6 13 13 12 10 11 10 13 8 8 5 5 8 9 8 6 12 4 9 11 13 15 15 7 10 8 2 7 5 3 15 17
4 2 10 12 10 5 4 3 5 7 3 9 9 12 14 14 8 12 12 8 5 8 10 11 5 6 8 5 7 10 8 16 18 14 12 9 8 11 10 6 8 6 3 6 13
2 4 12 16 4 6 4 6 7 8 11 10 14 15 17 10 10 13 13 13 10 11 12 15 15 15 9 12 10 10 13 12 7 8 4 10 6 3 9 6 8 5 4 6 11
0 7 12 14 5 5 7 9 9 4 9 10 12 15 13 13 10 11 11 12 10 7 9 10 8 7 8 13 10 13 15 10 4 8 2 7 3 6 7 4 5 10 5 4 8
6 8 6 6 7 7 10 10 6 5 5 10 10 12 7 9 4 9 9 4 8 7 12 5 4 6 6 10 7 7 8 12 11 14 8 9 9 10 9 8 8 11 10 6 4
9 6 8 8 6 4 9 15 3 6 4 9 13 13 11 14 10 8 8 4 1 2 7 4 10 8 7 6 14 14 14 10 9 9 9 2 8 5 10 6 7 8 12 10 8
5 9 6 7 5 10 10 3 3 5 7 5 6 6 5 5 8 4 4 7 2 1 7 12 10 11 7 13 15 10 13 12 13 9 12 12 3 4 5 9 7 11 10 11 12
7 3 10 9 10 15 10 2 2 6 5 2 6 6 2 2 4 3 4 6 2 6 10 7 9 12 16 15 10 9 13 16 13 13 12 8 16 13 5 13 11 12 9 9 11
7 6 7 10 7 8 4 6 3 7 2 3 2 5 2 1 5 4 2 8 2 6 8 11 7 10 12 15 20 7 12 8 12 15 17 14 12 12 11 8 9 10 10 10 12
7 5 7 14 14 14 9 9 8 1 3 1 1 3 5 6 4 3 6 7 2 5 6 6 13 15 13 17 15 13 13 14 15 12 15 15 19 6 12 7 8 10 10 11 12
4 4 5 7 8 6 3 3 6 7 3 2 3 5 5 5 6 8 2 5 8 7 5 8 12 13 14 16 16 18 18 18 19 19 19 19 22 21 20 8 8 8 10 11 12
8 7 2 3 2 7 6 6 6 5 7 6 9 4 4 6 5 8 2 6 7 3 7 7 11 9 15 16 18 16 16 17 17 17 18 18 17 13 16 10 8 12 11 11 12
7 5 6 5 4 7 1 3 1 2 1 5 5 6 7 7 4 9 10 11 10 8 10 11 11 10 12 12 8 14 8 8 8 8 10 10 10 13 13 13 9 9 9 10 12
Wind_Direction
313 296 287 282 280 278 277 278 281 278 279 282 290 299 303 310 313 312 307 239 220 250 308 313 301 305 258 118 316 262 331 57 47 45 89 119 205 189 232 236 250 96 42 130 152
316 300 286 281 278 274 273 272 274 277 279 282 285 289 300 309 305 265 254 218 198 191 334 303 328 309 184 152 51 336 59 34 17 48 80 114 346 150 192 240 151 152 108 137 153
315 302 290 281 277 271 269 269 268 270 272 275 278 283 291 312 289 150 215 226 197 227 291 300 295 286 277 318 42 38 38 5 60 34 34 71 184 262 264 24 248 187 138 155 164
311 300 292 285 278 271 266 265 268 268 268 269 271 271 272 257 262 177 189 228 214 248 281 287 271 283 320 25 68 80 46 12 15 69 4 45 58 250 326 49 31 200 146 165 171
310 299 293 286 277 269 264 262 263 264 264 263 264 262 248 243 250 354 213 210 206 223 263 287 276 292 337 333 135 29 27 354 42 41 319 59 263 315 265 203 143 140 158 170 178
304 296 290 283 275 268 262 258 259 258 256 252 252 245 238 251 206 198 220 208 202 219 245 248 315 350 294 329 351 357 334 27 30 39 185 280 258 259 129 154 156 160 166 173 183
309 297 288 281 274 268 260 252 250 251 248 241 237 235 252 233 214 201 194 191 210 222 251 246 279 279 348 278 12 319 268 169 38 10 9 311 227 182 147 164 164 171 173 172 185
314 305 293 281 272 265 257 246 241 241 237 232 227 219 257 219 224 204 193 205 208 228 245 273 268 274 269 318 257 229 232 231 86 335 19 303 113 112 165 185 184 181 177 178 182
316 306 295 281 268 259 248 237 226 226 217 198 53 210 226 253 206 191 190 199 208 224 235 262 263 265 278 238 245 182 259 53 198 71 317 300 319 155 174 199 211 190 180 187 182
315 305 289 270 255 238 220 205 203 206 201 194 243 237 228 209 175 186 191 204 206 216 229 235 238 246 220 247 293 351 325 302 329 27 318 298 282 288 161 202 219 197 197 192 189
318 304 280 253 234 211 183 144 206 215 217 283 158 299 139 156 164 188 193 206 228 219 227 200 235 234 240 304 2 317 273 285 288 48 292 303 297 287 265 186 215 221 204 195 203
318 301 269 239 219 204 193 205 334 357 225 219 217 236 177 177 182 190 189 211 207 234 211 220 227 254 296 329 269 267 263 265 310 259 300 293 296 269 279 237 202 205 224 212 197
320 299 249 213 210 211 202 217 264 302 257 170 203 201 187 198 211 184 198 214 238 233 219 253 309 5 300 250 247 247 260 284 332 318 281 250 278 153 140 186 204 229 219 214 207
321 292 205 171 167 192 230 236 232 289 255 140 188 205 188 212 209 161 197 219 230 258 228 262 254 216 243 248 244 264 218 312 285 286 312 305 295 122 158 205 206 216 203 218 206
318 272 185 167 157 177 174 179 215 219 242 142 136 156 192 213 122 182 188 207 255 203 251 106 226 213 242 251 237 273 21 291 284 274 277 269 246 128 186 33 348 350 236 184 198
314 216 174 178 179 179 176 162 162 233 187 149 140 177 176 215 179 145 179 232 276 244 224 277 226 244 268 250 249 274 280 260 244 248 255 80 293 159 107 27 12 13 174 168 184
311 183 179 153 148 179 194 176 220 258 133 152 175 163 191 180 152 173 195 200 231 214 210 197 215 207 229 247 211 230 253 263 226 243 108 90 283 101 98 48 16 49 136 169 172
177 164 168 171 176 172 173 226 253 48 203 148 150 176 205 165 165 189 179 217 212 284 296 281 159 174 179 233 262 202 250 295 316 312 26 167 246 93 81 147 38 79 80 158 188
129 150 164 185 167 170 223 225 242 205 80 179 184 188 174 178 276 213 230 313 37 347 314 325 156 126 210 203 249 174 244 273 313 288 240 256 129 197 149 193 118 87 72 98 211
118 155 158 179 183 196 242 258 76 359 290 276 196 214 181 181 216 223 170 80 104 327 304 345 287 182 116 235 238 263 312 285 242 260 286 54 278 201 185 120 56 63 62 44 42
145 191 177 179 191 229 235 118 151 158 254 277 262 192 294 146 275 177 97 101 272 22 296 307 287 278 187 229 257 180 232 224 253 288 308 291 60 34 263 87 59 55 36 29 27
283 190 168 177 216 227 247 53 20 158 198 205 320 351 325 116 230 255 290 74 31 317 296 352 309 291 289 298 284 270 287 291 282 277 263 296 298 103 57 78 66 62 37 34 24
261 105 175 189 242 202 100 156 304 200 232 204 167 322 302 254 290 261 22 100 356 305 355 1 271 290 272 247 219 216 273 247 280 283 282 289 279 106 74 63 71 63 32 34 26
272 162 159 212 271 287 162 190 147 41 119 9 116 259 243 237 192 291 241 143 272 326 24 303 267 264 281 307 323 305 290 278 288 281 286 281 298 321 112 311 11 37 28 22 27
255 28 8 205 196 262 214 169 206 172 172 243 178 294 313 286 254 244 276 277 202 109 241 253 278 290 289 298 297 290 284 280 273 276 276 288 294 299 313 69 18 23 17 21 21
334 336 239 343 159 251 146 209 243 112 297 169 271 118 293 280 324 327 310 273 279 149 254 280 284 279 280 277 262 275 284 279 279 277 273 277 278 359 7 24 14 4 19 13 9
2 328 294 113 236 234 93 88 228 30 142 11 344 277 227 27 359 315 296 289 276 266 279 282 283 285 280 292 305 273 305 307 290 314 312 297 34 17 350 359 9 358 11 8 1
Height
1527 1526 1525 1525 1525 1524 1523 1523 1522 1522 1521 1521 1521 1520 1520 1519 1519 1518 1518 1518 1517 1516 1515 1515 1514 1511 1508 1505 1505 1501 1498 1503 1502 1501 1507 1510 1506 1509 1508 1508 1507 1508 1508 1513 1521
1527 1526 1525 1524 1524 1524 1523 1522 1522 1521 1521 1521 1521 1520 1520 1519 1518 1518 1518 1517 1517 1516 1515 1515 1511 1508 1501 1502 1503 1495 1499 1505 1500 1499 1503 1508 1506 1507 1507 1505 1505 1508 1513 1518 1523
1526 1525 1524 1523 1523 1522 1522 1522 1521 1521 1521 1521 1520 1520 1520 1520 1518 1514 1516 1517 1517 1516 1516 1516 1513 1507 1498 1498 1500 1500 1505 1501 1501 1505 1504 1506 1507 1507 1502 1512 1508 1511 1512 1519 1523
1525 1524 1523 1522 1522 1521 1521 1521 1521 1521 1520 1520 1520 1520 1520 1520 1514 1514 1515 1516 1517 1517 1517 1515 1510 1503 1498 1496 1500 1501 1504 1504 1504 1504 1504 1504 1507 1505 1505 1505 1508 1508 1511 1518 1522
1524 1523 1522 1521 1521 1520 1520 1520 1520 1520 1520 1520 1520 1520 1520 1521 1516 1514 1515 1516 1517 1517 1517 1514 1509 1506 1497 1499 1499 1501 1502 1502 1503 1503 1503 1504 1504 1505 1504 1506 1509 1510 1513 1517 1520
1522 1521 1520 1520 1519 1519 1519 1519 1519 1519 1519 1519 1519 1519 1520 1518 1514 1515 1516 1516 1518 1518 1516 1515 1510 1512 1505 1501 1500 1503 1502 1500 1500 1499 1499 1500 1499 1502 1503 1505 1507 1510 1512 1516 1519
1520 1519 1518 1518 1518 1518 1518 1518 1518 1518 1518 1518 1518 1518 1520 1515 1514 1515 1516 1517 1518 1517 1515 1515 1515 1512 1506 1500 1504 1501 1498 1497 1500 1499 1496 1496 1495 1497 1500 1503 1505 1508 1511 1514 1517
1518 1517 1516 1516 1516 1516 1516 1517 1517 1517 1517 1518 1518 1518 1514 1513 1514 1514 1516 1517 1517 1517 1517 1516 1515 1513 1508 1505 1500 1498 1495 1498 1497 1499 1497 1494 1495 1492 1498 1501 1501 1504 1508 1512 1515
1517 1515 1515 1515 1515 1515 1515 1516 1516 1517 1517 1518 1519 1519 1510 1510 1512 1513 1515 1515 1516 1517 1517 1517 1516 1509 1504 1501 1492 1491 1496 1498 1498 1496 1496 1493 1495 1487 1493 1496 1497 1500 1504 1510 1513
1515 1513 1513 1513 1513 1514 1514 1515 1515 1516 1517 1517 1517 1521 1511 1508 1510 1512 1514 1515 1514 1514 1516 1515 1511 1504 1499 1493 1501 1498 1498 1496 1499 1493 1493 1490 1488 1481 1484 1490 1492 1495 1499 1505 1509
1512 1511 1511 1511 1512 1512 1514 1515 1519 1518 1516 1508 1507 1507 1507 1509 1510 1512 1513 1514 1513 1512 1509 1506 1505 1502 1490 1485 1490 1499 1501 1500 1490 1489 1495 1490 1487 1479 1478 1480 1487 1490 1493 1496 1503
1509 1508 1508 1509 1510 1511 1512 1515 1512 1513 1506 1509 1509 1509 1508 1508 1508 1509 1512 1512 1509 1506 1502 1500 1505 1493 1489 1494 1500 1499 1499 1496 1486 1486 1488 1483 1483 1472 1471 1473 1477 1483 1486 1490 1495
1506 1505 1505 1506 1508 1509 1510 1514 1512 1512 1505 1504 1505 1506 1507 1508 1502 1504 1510 1508 1504 1501 1497 1501 1489 1495 1497 1498 1500 1496 1496 1490 1496 1489 1478 1479 1474 1473 1470 1474 1476 1478 1479 1483 1487
1504 1503 1503 1505 1510 1509 1510 1510 1511 1512 1497 1499 1501 1503 1505 1505 1501 1502 1505 1505 1502 1498 1496 1494 1490 1495 1498 1497 1493 1494 1480 1488 1495 1495 1498 1472 1495 1476 1472 1470 1469 1468 1473 1476 1482
1502 1501 1502 1504 1504 1509 1511 1510 1511 1513 1506 1487 1495 1500 1500 1499 1497 1502 1504 1504 1498 1495 1498 1491 1493 1496 1498 1492 1487 1490 1486 1489 1489 1490 1483 1466 1479 1479 1467 1469 1466 1463 1464 1469 1477
1501 1500 1501 1504 1505 1508 1507 1509 1512 1509 1501 1488 1491 1494 1496 1496 1493 1499 1503 1503 1498 1495 1494 1491 1489 1490 1488 1487 1488 1488 1489 1484 1477 1473 1486 1472 1477 1469 1471 1472 1467 1465 1466 1469 1474
1500 1499 1500 1502 1508 1507 1508 1511 1504 1497 1472 1487 1486 1487 1487 1489 1490 1495 1498 1499 1493 1498 1493 1483 1482 1482 1488 1490 1486 1489 1489 1491 1492 1491 1485 1467 1480 1466 1465 1467 1465 1466 1468 1471 1474
1499 1499 1501 1502 1505 1506 1509 1505 1501 1471 1474 1471 1476 1482 1484 1483 1484 1487 1490 1490 1486 1487 1486 1483 1493 1480 1480 1486 1480 1481 1480 1488 1507 1493 1486 1465 1483 1470 1462 1466 1466 1467 1469 1472 1474
1500 1501 1504 1505 1504 1506 1509 1496 1478 1474 1469 1475 1476 1482 1481 1481 1482 1485 1486 1481 1482 1485 1494 1486 1485 1477 1479 1479 1480 1479 1490 1467 1479 1467 1478 1465 1459 1453 1458 1460 1462 1467 1470 1473 1475
1502 1504 1506 1505 1506 1508 1502 1489 1476 1479 1481 1476 1480 1473 1481 1481 1485 1484 1485 1490 1490 1494 1492 1483 1495 1473 1475 1480 1478 1479 1472 1488 1475 1503 1505 1478 1483 1468 1460 1459 1462 1466 1471 1477 1477
1503 1500 1505 1506 1508 1506 1491 1477 1482 1486 1486 1477 1473 1476 1471 1478 1478 1478 1482 1492 1496 1492 1494 1486 1487 1482 1475 1478 1475 1476 1481 1477 1472 1474 1491 1491 1481 1463 1465 1461 1468 1472 1480 1482 1482
1502 1491 1504 1506 1505 1493 1481 1483 1490 1484 1487 1482 1479 1473 1477 1481 1482 1485 1488 1490 1501 1498 1495 1487 1490 1490 1478 1464 1464 1470 1477 1477 1485 1487 1474 1481 1479 1451 1461 1466 1473 1481 1485 1487 1487
1498 1498 1504 1505 1492 1485 1486 1488 1487 1485 1486 1485 1485 1484 1486 1486 1495 1491 1491 1501 1505 1500 1499 1496 1493 1496 1483 1465 1458 1471 1473 1469 1473 1472 1483 1489 1476 1456 1469 1476 1479 1482 1487 1489 1490
1498 1492 1500 1501 1493 1482 1485 1486 1489 1493 1491 1490 1490 1489 1489 1489 1489 1492 1493 1498 1506 1504 1510 1510 1496 1496 1499 1484 1478 1486 1481 1479 1479 1486 1480 1475 1467 1460 1478 1486 1483 1486 1488 1491 1492
1499 1490 1493 1488 1489 1486 1485 1485 1485 1490 1493 1493 1494 1492 1492 1495 1491 1493 1493 1496 1498 1507 1509 1503 1500 1493 1488 1485 1485 1486 1486 1483 1486 1482 1489 1481 1478 1470 1468 1479 1487 1489 1491 1492 1494
1506 1503 1498 1493 1495 1492 1492 1490 1488 1490 1495 1490 1495 1496 1498 1499 1496 1500 1499 1499 1501 1500 1503 1498 1505 1501 1499 1490 1486 1487 1482 1480 1479 1479 1479 1478 1479 1475 1478 1483 1488 1492 1492 1495 1497
1510 1509 1506 1498 1492 1490 1486 1490 1492 1498 1502 1501 1501 1502 1499 1501 1506 1506 1504 1503 1501 1503 1503 1503 1501 1502 1501 1485 1488 1495 1477 1477 1476 1479 1479 1487 1486 1489 1489 1492 1493 1497 1496 1499 1499